Location: Eurasberg
(48.3353°N, 11.0839°E)
Time: 09:07:28
(UTC+00:00)

Cosmos 1763 Rocket - Pass Details

Date: 18 January 2026
Orbit: 729 x 773 km, 74.0° (Epoch: 18 February)

Event Time Altitude Azimuth Distance (km) Brightness Sun altitude
Exits shadow 04:30:57 16° 353° (N) 1,846 5.4 -24.2°
Maximum altitude 04:34:40 43° 60° (ENE) 1,022 4.5 -23.6°
Drops below altitude 10° 04:39:29 10° 132° (SE) 2,239 6.6 -22.8°
Sets 04:41:56 0° 139° (SE) 3,164 7.4 -22.4°
